Regional Weather Roundup
Issued by NWS

Home | Current Version | Previous Version | Text Only | Print | Product List | Glossary On
Versions: 1 2 3 4 5 6 7 8 9 10 11 12 13 14 15 16 17 18 19 20 21 22 23 24 25 26 27 28 29 30 31 32 33 34 35 36 37 38 39 40 41 42 43 44 45 46 47 48 49 50
000
ASUS46 KSTO 220515
RWRCA

NORTHERN AND CENTRAL CA REGIONAL WEATHER ROUNDUP
NATIONAL WEATHER SERVICE SACRAMENTO CA
900 PM PST TUE FEB 21 2017

NOTE: FAIR INDICATES FEW OR NO CLOUDS BELOW 12,000 FEET WITH NO
SIGNIFICANT WEATHER AND/OR OBSTRUCTIONS TO VISIBILITY.

CAZ001-003-220600-
NORTHWEST AREA

CITY           SKY/WX    TMP DP  RH WIND       PRES   REMARKS
CRESCENT CITY  CLOUDY    46  44  93 CALM      30.21R
UKIAH          PTCLDY    45  42  89 CALM      30.22R
$$

CAZ006-505>513-220600-
BAY AREA

CITY           SKY/WX    TMP DP  RH WIND       PRES   REMARKS
SANTA ROSA     MOCLDY    49  43  80 CALM      30.22R
SAN RAFAEL     N/A       52  MM  MM MISG
NAPA           MOCLDY    52  46  80 CALM      30.22R
CONCORD        CLOUDY    52  47  83 W7        30.23R
OAKLAND CITY   N/A      MM  MM  MM MISG
OAKLAND        LGT RAIN  53  50  89 W7        30.24R
SAN FRAN CITY  N/A       51  MM  78 MISG
SAN FRAN ARPT  MOCLDY    52  46  80 W8        30.24R
LIVERMORE      RAIN      48  44  86 W9        30.23R FOG
HAYWARD        CLOUDY    52  45  77 W3        30.24R
REDWOOD CITY   N/A       49  MM  95 MISG
MOFFETT ARPT   LGT RAIN  50  49  96 CALM      30.25S
SAN JOSE ARPT  LGT RAIN  50  46  86 NW6       30.25R
$$
CAZ034-037-514>518-220600-
CENTRAL COAST

CITY           SKY/WX    TMP DP  RH WIND       PRES   REMARKS
WATSONVILLE    PTCLDY    49  49 100 CALM      30.25R
SALINAS        LGT RAIN  51  46  83 W6        30.25R
MONTEREY       CLOUDY    52  49  89 S6        30.26R
SAN LUIS OBISP MOCLDY    56  52  86 SE3       30.26R
SANTA MARIA    MOCLDY    53  53 100 CALM      30.27R
$$
CAZ015-016-220600-
NORTHERN SACRAMENTO VALLEY

CITY           SKY/WX    TMP DP  RH WIND       PRES   REMARKS
REDDING        MOCLDY    45  39  79 E3        30.14R
RED BLUFF      CLOUDY    52  40  63 E6        30.16R
OROVILLE       CLOUDY    52  46  80 S9        30.19R
$$
CAZ016>018-220600-
SOUTHERN SACRAMENTO VALLEY

CITY           SKY/WX    TMP DP  RH WIND       PRES   REMARKS
AUBURN         CLOUDY    46  45  93 S6        30.20R
BEALE AFB      DRIZZLE   52  48  87 S14       30.18R
LINCOLN        MOCLDY    50  46  87 S9        30.19S
MARYSVILLE     LGT RAIN  52  47  83 S12       30.19R
SAC INTL ARPT  CLOUDY    51  49  92 S7        30.19S
MATHER AIRPORT CLOUDY    48  48 100 SE6       30.21R
DOWNTOWN SAC   N/A       52  MM  MM MISG
SAC EXEC ARPT  CLOUDY    51  48  89 S6        30.21R
VACAVILLE      CLOUDY    51  48  89 SW3       30.22R
TRAVIS AFB     MOCLDY    50  48  93 SW8       30.20R
$$
CAZ019>021-220600-
SAN JOAQUIN VALLEY

CITY           SKY/WX    TMP DP  RH WIND       PRES   REMARKS
STOCKTON       LGT RAIN  51  49  92 SW7       30.22R
MODESTO        MOCLDY    51  46  83 CALM      30.23R
MERCED         CLOUDY    53  47  79 CALM      30.22R
LEMOORE        PTCLDY    52  45  77 N7        30.24R
FRESNO         CLOUDY    55  46  71 N9        30.24R
HANFORD        CLEAR     55  46  71 NW7       30.23R
PORTERVILLE    PTCLDY    50  46  86 SW9       30.25R
BAKERSFIELD    CLOUDY    58  47  66 NW10      30.24R
$$
CAZ011-012-071-220600-
NORTHERN MOUNTAINS

CITY           SKY/WX    TMP DP  RH WIND       PRES   REMARKS
YREKA          CLOUDY    34  31  88 SE5       30.11R WCI  30
MOUNT SHASTA   CLOUDY    33  29  85 CALM      30.07S
ALTURAS        CLOUDY    32  28  85 CALM      30.07S
$$
CAZ011-012-071-220600-
SIERRA NEVADA MTNS

CITY           SKY/WX    TMP DP  RH WIND       PRES   REMARKS
BLUE CANYON    FOG      N/A N/A N/A S6        30.11S VSB 3/4
TAHOE VLY ARPT LGT SNOW  30  27  88 CALM      30.07F FOG
MAMMOTH LAKES  MOCLDY    34  19  54 S14G23    30.07S WCI  24
$$



USA.gov is the U.S. government's official web portal to all federal, state and local government web resources and services.